| time (UTC) | temp F | wind direction | speed knots | gust knots | rain 1hr in | rain 24hr in | rain mn in | humidity % | barometer mb |
| 20260906164003 | 77 | 74 | 0.9 | 4.3 | 0.00 | 0.00 | 0.00 | 67 | 1025.0 |
| 20260906163003 | 78 | 135 | 2.6 | 6.1 | 0.00 | 0.00 | 0.00 | 66 | 1025.1 |
| 20260906162003 | 76 | 85 | 2.6 | 6.1 | 0.00 | 0.00 | 0.00 | 68 | 1025.3 |
| 20260906160004 | 76 | 23 | 1.7 | 7.8 | 0.00 | 0.00 | 0.00 | 71 | 1025.4 |
| 20260906153003 | 75 | 219 | 2.6 | 6.1 | 0.00 | 0.00 | 0.00 | 74 | 1024.9 |
| 20260906152004 | 75 | 133 | 2.6 | 4.3 | 0.00 | 0.00 | 0.00 | 74 | 1025.3 |
| 20260906151003 | 75 | 95 | 1.7 | 4.3 | 0.00 | 0.00 | 0.00 | 77 | 1025.2 |
| 20260906150003 | 74 | 82 | 1.7 | 5.2 | 0.00 | 0.00 | 0.00 | 78 | 1025.0 |
| 20260906144003 | 73 | 86 | 1.7 | 5.2 | 0.00 | 0.00 | 0.00 | 80 | 1024.9 |
| 20260906143003 | 73 | 144 | 2.6 | 6.1 | 0.00 | 0.00 | 0.00 | 80 | 1025.0 |
| 20260906142003 | 74 | 81 | 2.6 | 4.3 | 0.00 | 0.00 | 0.00 | 79 | 1025.3 |
| 20260906141004 | 72 | 85 | 1.7 | 4.3 | 0.00 | 0.00 | 0.00 | 83 | 1025.3 |
| 20260906140003 | 70 | 143 | 0.9 | 4.3 | 0.00 | 0.00 | 0.00 | 86 | 1025.2 |
| 20260906135004 | 69 | 40 | 0.9 | 4.3 | 0.00 | 0.00 | 0.00 | 90 | 1025.7 |
| 20260906134003 | 67 | 234 | 0.9 | 4.3 | 0.00 | 0.00 | 0.00 | 97 | 1025.4 |
| 20260906133003 | 65 | 42 | 1.7 | 2.6 | 0.00 | 0.00 | 0.00 | 99 | 1025.2 |
| 20260906131004 | 63 | 95 | 0.9 | 4.3 | 0.00 | 0.00 | 0.00 | 99 | 1025.3 |
| 20260906130004 | 62 | 96 | 1.7 | 2.6 | 0.00 | 0.00 | 0.00 | 99 | 1025.1 |
| 20260906124003 | 62 | 98 | 0.9 | 2.6 | 0.00 | 0.00 | 0.00 | 99 | 1025.0 |
| 20260906123004 | 61 | 82 | 1.7 | 1.7 | 0.00 | 0.00 | 0.00 | 99 | 1024.9 |
| 20260906122003 | 61 | 101 | 0.9 | 4.3 | 0.00 | 0.00 | 0.00 | 99 | 1024.9 |
| 20260906121003 | 60 | 75 | 1.7 | 2.6 | 0.00 | 0.01 | 0.00 | 99 | 1024.7 |
| 20260906120003 | 60 | 27 | 1.7 | 2.6 | 0.00 | 0.02 | 0.00 | 99 | 1024.7 |
| 20260906115003 | 60 | 215 | 0.9 | 5.2 | 0.00 | 0.02 | 0.00 | 99 | 1024.3 |
| 20260906114004 | 59 | 13 | 2.6 | 4.3 | 0.00 | 0.02 | 0.00 | 99 | 1023.9 |
| 20260906113003 | 58 | 64 | 1.7 | 4.3 | 0.00 | 0.03 | 0.00 | 99 | 1024.0 |
| 20260906112004 | 58 | 57 | 1.7 | 4.3 | 0.00 | 0.03 | 0.00 | 99 | 1023.8 |
| 20260906111003 | 58 | 109 | 0.9 | 4.3 | 0.00 | 0.03 | 0.00 | 99 | 1023.6 |
| 20260906110004 | 58 | 86 | 1.7 | 4.3 | 0.00 | 0.03 | 0.00 | 99 | 1023.9 |
| 20260906105004 | 58 | 91 | 1.7 | 4.3 | 0.00 | 0.03 | 0.00 | 99 | 1024.0 |
| 20260906104003 | 58 | 99 | 1.7 | 4.3 | 0.00 | 0.03 | 0.00 | 99 | 1023.8 |
| 20260906103003 | 58 | 53 | 1.7 | 5.2 | 0.00 | 0.03 | 0.00 | 99 | 1023.5 |
| 20260906102004 | 58 | 12 | 2.6 | 5.2 | 0.00 | 0.03 | 0.00 | 99 | 1023.6 |
| 20260906101003 | 59 | 75 | 1.7 | 2.6 | 0.00 | 0.03 | 0.00 | 99 | 1023.9 |
| 20260906100004 | 59 | 28 | 2.6 | 2.6 | 0.00 | 0.04 | 0.00 | 99 | 1023.6 |
| 20260906095003 | 59 | 79 | 1.7 | 4.3 | 0.00 | 0.04 | 0.00 | 99 | 1023.5 |
| 20260906094003 | 58 | 58 | 0.9 | 2.6 | 0.00 | 0.04 | 0.00 | 99 | 1023.5 |
| 20260906093003 | 58 | 102 | 1.7 | 1.7 | 0.00 | 0.04 | 0.00 | 99 | 1023.3 |
| 20260906092003 | 59 | 108 | 1.7 | 1.7 | 0.00 | 0.04 | 0.00 | 99 | 1023.5 |
| 20260906091004 | 59 | 104 | 0.9 | 1.7 | 0.00 | 0.04 | 0.00 | 99 | 1023.5 |
| 20260906090003 | 59 | 81 | 0.9 | 2.6 | 0.00 | 0.04 | 0.00 | 99 | 1023.2 |
| 20260906085004 | 58 | 93 | 1.7 | 1.7 | 0.00 | 0.04 | 0.00 | 99 | 1023.4 |
| 20260906083004 | 58 | 80 | 0.9 | 1.7 | 0.00 | 0.04 | 0.00 | 99 | 1023.3 |
| 20260906082003 | 58 | 94 | 1.7 | 2.6 | 0.00 | 0.04 | 0.00 | 99 | 1023.1 |
| 20260906081003 | 59 | 98 | 1.7 | 2.6 | 0.00 | 0.04 | 0.00 | 99 | 1023.2 |
| 20260906080003 | 59 | 100 | 1.7 | 2.6 | 0.00 | 0.04 | 0.00 | 99 | 1023.4 |
| 20260906075003 | 59 | 101 | 1.7 | 1.7 | 0.00 | 0.04 | 0.00 | 99 | 1023.2 |
| 20260906074003 | 60 | 103 | 0.9 | 2.6 | 0.00 | 0.04 | 0.00 | 99 | 1023.4 |
| 20260906073003 | 60 | 98 | 1.7 | 2.6 | 0.00 | 0.04 | 0.00 | 99 | 1023.3 |
| 20260906072003 | 60 | 96 | 1.7 | 1.7 | 0.00 | 0.04 | 0.00 | 99 | 1023.4 |
| 20260906071003 | 59 | 49 | 1.7 | 1.7 | 0.00 | 0.04 | 0.00 | 99 | 1023.4 |
| 20260906070003 | 59 | 67 | 0.0 | 0.9 | 0.00 | 0.04 | 0.00 | 99 | 1023.1 |
| 20260906065004 | 59 | 47 | 0.0 | 0.9 | 0.00 | 0.04 | 0.00 | 99 | 1023.2 |
| 20260906064003 | 59 | 88 | 0.9 | 1.7 | 0.00 | 0.04 | 0.00 | 99 | 1023.1 |
| 20260906063004 | 59 | 66 | 0.9 | 1.7 | 0.00 | 0.04 | 0.00 | 99 | 1022.8 |
| 20260906062003 | 60 | 85 | 1.7 | 1.7 | 0.00 | 0.04 | 0.00 | 99 | 1022.9 |
| 20260906061004 | 59 | 83 | 0.9 | 1.7 | 0.00 | 0.04 | 0.00 | 99 | 1023.3 |
| 20260906060003 | 59 | 117 | 0.9 | 1.7 | 0.00 | 0.04 | 0.00 | 99 | 1023.0 |
| 20260906055003 | 60 | 109 | 0.9 | 1.7 | 0.00 | 0.04 | 0.00 | 99 | 1022.8 |
| 20260906054004 | 60 | 77 | 0.0 | 1.7 | 0.00 | 0.04 | 0.00 | 99 | 1023.1 |
| 20260906053004 | 60 | 98 | 0.9 | 2.6 | 0.00 | 0.04 | 0.00 | 99 | 1022.6 |
| 20260906052004 | 60 | 86 | 1.7 | 1.7 | 0.00 | 0.04 | 0.00 | 99 | 1022.5 |
| 20260906051003 | 61 | 68 | 1.7 | 1.7 | 0.00 | 0.04 | 0.00 | 99 | 1022.4 |
| 20260906050004 | 61 | 94 | 1.7 | 2.6 | 0.00 | 0.04 | 0.00 | 98 | 1022.4 |
| 20260906045004 | 61 | 94 | 1.7 | 2.6 | 0.00 | 0.04 | 0.04 | 98 | 1022.5 |
| 20260906044004 | 61 | 100 | 1.7 | 1.7 | 0.00 | 0.04 | 0.04 | 97 | 1022.7 |
| 20260906043004 | 61 | 86 | 0.9 | 1.7 | 0.00 | 0.04 | 0.04 | 97 | 1022.4 |
| 20260906042004 | 61 | 93 | 1.7 | 1.7 | 0.00 | 0.04 | 0.04 | 96 | 1022.5 |
| 20260906033004 | 63 | 112 | 0.9 | 1.7 | 0.00 | 0.04 | 0.04 | 94 | 1022.1 |
| 20260906030004 | 64 | 73 | 0.9 | 0.9 | 0.00 | 0.04 | 0.04 | 93 | 1021.8 |
| 20260906025003 | 64 | 56 | 0.9 | 1.7 | 0.00 | 0.04 | 0.04 | 93 | 1022.2 |
| 20260906024003 | 64 | 101 | 0.9 | 1.7 | 0.00 | 0.04 | 0.04 | 91 | 1022.0 |
| 20260906023003 | 64 | 103 | 0.9 | 1.7 | 0.00 | 0.04 | 0.04 | 91 | 1022.0 |
| 20260906022003 | 65 | 92 | 1.7 | 1.7 | 0.00 | 0.04 | 0.04 | 91 | 1021.7 |
| 20260906021004 | 65 | 105 | 1.7 | 1.7 | 0.00 | 0.04 | 0.04 | 92 | 1022.0 |
| 20260906015004 | 66 | 107 | 0.9 | 1.7 | 0.00 | 0.04 | 0.04 | 93 | 1022.1 |
| 20260906014003 | 67 | 117 | 0.9 | 0.9 | 0.00 | 0.04 | 0.04 | 93 | 1021.9 |
| 20260906013003 | 67 | 86 | 0.9 | 1.7 | 0.00 | 0.04 | 0.04 | 92 | 1021.5 |
| 20260906012004 | 67 | 101 | 0.9 | 1.7 | 0.00 | 0.04 | 0.04 | 91 | 1021.7 |
| 20260906011004 | 68 | 69 | 0.9 | 0.9 | 0.00 | 0.04 | 0.04 | 90 | 1021.8 |
| 20260906010003 | 68 | 92 | 0.9 | 0.9 | 0.00 | 0.04 | 0.04 | 88 | 1021.5 |
| 20260906005003 | 69 | 85 | 0.0 | 0.9 | 0.00 | 0.04 | 0.04 | 87 | 1021.3 |
| 20260906003003 | 71 | 93 | 0.9 | 1.7 | 0.00 | 0.04 | 0.04 | 84 | 1021.3 |
| 20260906001004 | 72 | 85 | 1.7 | 5.2 | 0.00 | 0.04 | 0.04 | 81 | 1021.3 |
| 20260905235003 | 74 | 70 | 1.7 | 6.1 | 0.00 | 0.04 | 0.04 | 79 | 1021.1 |
| 20260905234003 | 75 | 35 | 1.7 | 4.3 | 0.00 | 0.04 | 0.04 | 77 | 1021.1 |
| 20260905232004 | 74 | 21 | 3.5 | 7.0 | 0.00 | 0.04 | 0.04 | 76 | 1021.4 |
| 20260905231004 | 75 | 20 | 3.5 | 7.0 | 0.00 | 0.04 | 0.04 | 75 | 1021.4 |
| 20260905230004 | 75 | 8 | 3.5 | 7.8 | 0.00 | 0.04 | 0.04 | 75 | 1021.3 |
| 20260905225004 | 75 | 17 | 4.3 | 7.8 | 0.00 | 0.04 | 0.04 | 75 | 1021.2 |
| 20260905224003 | 76 | 10 | 3.5 | 7.8 | 0.00 | 0.04 | 0.04 | 74 | 1020.9 |
| 20260905223003 | 77 | 39 | 1.7 | 11.3 | 0.00 | 0.04 | 0.04 | 73 | 1020.8 |
| 20260905222003 | 76 | 44 | 2.6 | 7.8 | 0.00 | 0.04 | 0.04 | 74 | 1020.8 |
| 20260905221003 | 77 | 34 | 2.6 | 7.8 | 0.00 | 0.04 | 0.04 | 72 | 1021.0 |
| 20260905220004 | 77 | 23 | 1.7 | 6.1 | 0.00 | 0.04 | 0.04 | 72 | 1020.7 |
| 20260905215004 | 76 | 58 | 2.6 | 6.1 | 0.00 | 0.04 | 0.04 | 72 | 1021.0 |
| 20260905214003 | 76 | 34 | 3.5 | 8.7 | 0.00 | 0.04 | 0.04 | 75 | 1021.2 |
| 20260905213004 | 76 | 19 | 3.5 | 7.8 | 0.00 | 0.04 | 0.04 | 76 | 1020.7 |
| 20260905212003 | 74 | 20 | 3.5 | 7.0 | 0.00 | 0.04 | 0.04 | 78 | 1021.0 |
| 20260905211004 | 74 | 348 | 4.3 | 8.7 | 0.00 | 0.04 | 0.04 | 78 | 1021.3 |
| 20260905210003 | 75 | 4 | 4.3 | 7.0 | 0.00 | 0.04 | 0.04 | 78 | 1021.1 |
| 20260905205003 | 75 | 5 | 2.6 | 6.1 | 0.00 | 0.04 | 0.04 | 80 | 1020.9 |
| 20260905204003 | 75 | 43 | 3.5 | 7.8 | 0.00 | 0.04 | 0.04 | 80 | 1021.0 |
| 20260905202004 | 75 | 40 | 2.6 | 7.8 | 0.00 | 0.04 | 0.04 | 81 | 1020.8 |
| 20260905201004 | 75 | 74 | 1.7 | 7.8 | 0.00 | 0.04 | 0.04 | 81 | 1020.6 |
| 20260905200003 | 75 | 28 | 1.7 | 5.2 | 0.00 | 0.04 | 0.04 | 82 | 1020.9 |
| 20260905195004 | 75 | 62 | 2.6 | 7.8 | 0.00 | 0.04 | 0.04 | 83 | 1020.8 |
| 20260905194003 | 75 | 55 | 1.7 | 5.2 | 0.00 | 0.04 | 0.04 | 83 | 1021.0 |
| 20260905192004 | 75 | 19 | 2.6 | 7.0 | 0.00 | 0.04 | 0.04 | 84 | 1021.1 |
| 20260905191003 | 74 | 331 | 3.5 | 6.1 | 0.00 | 0.04 | 0.04 | 84 | 1021.0 |
| 20260905190004 | 74 | 13 | 3.5 | 7.0 | 0.00 | 0.04 | 0.04 | 84 | 1021.1 |
| 20260905185003 | 74 | 331 | 3.5 | 7.8 | 0.00 | 0.04 | 0.04 | 85 | 1021.2 |
| 20260905184003 | 74 | 28 | 2.6 | 5.2 | 0.00 | 0.04 | 0.04 | 86 | 1021.2 |
| 20260905183004 | 73 | 8 | 3.5 | 7.0 | 0.00 | 0.04 | 0.04 | 86 | 1021.3 |
| 20260905182004 | 74 | 53 | 1.7 | 5.2 | 0.00 | 0.04 | 0.04 | 85 | 1021.2 |
| 20260905181004 | 73 | 52 | 1.7 | 5.2 | 0.00 | 0.04 | 0.04 | 87 | 1021.2 |
| 20260905174004 | 72 | 97 | 1.7 | 7.0 | 0.00 | 0.04 | 0.04 | 90 | 1021.2 |
| 20260905173004 | 73 | 357 | 2.6 | 5.2 | 0.00 | 0.04 | 0.04 | 89 | 1021.2 |
| 20260905172004 | 72 | 48 | 1.7 | 4.3 | 0.00 | 0.04 | 0.04 | 90 | 1021.4 |
| 20260905171003 | 72 | 77 | 1.7 | 4.3 | 0.00 | 0.04 | 0.04 | 90 | 1021.1 |
| 20260905170004 | 72 | 57 | 1.7 | 6.1 | 0.00 | 0.04 | 0.04 | 91 | 1021.5 |